sat.trackr.live / text

‹ back to catalog

STARLINK-33585

NORAD 62782 · 2025-015AA

PAYLOAD ACTIVE UNKNOWN

§ Identity

Operator
Country
US
Launch date
2025-01-21
Launch site
AFWTR
Launch vehicle
Mass (kg)
RCS (m²)

Purposes: comms

External: N2YO · Heavens-Above · Gunter

§ Orbital elements

Epoch: 2026-05-25T04:40:19.327296Z

Period
94.01 min
Inclination
53.1607°
Eccentricity
0.0001197
Mean motion
15.31727325 rev/d
Perigee alt
469.8 km
Apogee alt
471.5 km
Semi-major
6,848.8 km
B*
5.9342e-4
RAAN
326.4422°
Arg perigee
95.6123°
Mean anomaly
264.5015°
Rev number
7,592

§ Raw data

STARLINK-335851 62782U 25015AA  26145.19466814  .00018110  00000+0  59342-3 0  99912 62782  53.1607 326.4422 0001197  95.6123 264.5015 15.31727325 75928

JSON: /api/v1/satellites/62782 · /tle

For live sub-satellite position, see the globe view (requires WebGL).

§ Visibility from observer

Set your observer location to see the next 7 days of passes ≥ 10°. The values pass through the URL so the page stays shareable.

No JS? Fill the form by hand. The geolocation button needs JavaScript.